"startDT [UTC]","vpos","CH4 [ppm]","stdev(CH4) [ppm]","CO2 [ppm]","stdev(CO2) [ppm]","H2O_reported [%]","stdev(H2O_reported)","CavityPressure [torr]","CavityTemp [C]","OutletValve","CH4_dry [ppm]","CO2_dry [ppm]","DasTemp [C]","EtalonTemp [C]","WarmBoxTemp [C]","MPVPosition","T_ECpre [C]","T_EC1 [C]","T_EC2 [C]","p_inlet [hPa]","p_in [hPa]","p_out [hPa]","T_inlet [C]","RH_inlet [%]","dwpt_inlet [C]","T_vent [C]","RH_vent [%]","dwpt_vent [C]","flow_vent [l min-1]","flow_inlet [l min-1]","dwpt_sample [C]","T_room [C]"
2013-11-20 00:07:00,0.0,1.90914,0.00036,400.787,0.027,0.2729,0.0011,140.001,45.000,31690.21247,1.91418,402.113,33.375,45.058,45.000,0.00,0.11,-272.57,-272.63,-18,572,-2,20.2,8.6,-14.2,20.2,9.0,-13.7,5.73,2.58,-10.9,26.4
2013-11-20 00:08:00,0.0,1.90956,0.00025,400.763,0.009,0.2737,0.0014,140.005,45.000,31689.79312,1.91476,402.089,33.381,45.058,45.000,0.00,0.11,-272.57,-272.63,-18,572,-2,20.2,8.6,-14.3,20.2,9.0,-13.7,5.73,2.58,-10.9,26.5
2013-11-20 00:09:00,0.0,1.90912,0.00022,400.757,0.028,0.2737,0.0017,140.004,45.000,31691.20148,1.91433,402.083,33.400,45.059,45.000,0.00,0.11,-272.57,-272.64,-18,572,-2,20.2,8.6,-14.2,20.2,9.0,-13.7,5.73,2.58,-10.8,26.5
2013-11-20 00:10:00,0.0,1.90915,0.00051,400.754,0.024,0.2753,0.0024,140.003,45.000,31691.44445,1.91442,402.092,33.435,45.059,45.000,0.00,0.11,-272.57,-272.64,-18,572,-2,20.2,8.6,-14.2,20.2,9.0,-13.7,5.73,2.58,-10.8,26.5
2013-11-20 00:11:00,0.0,1.90923,0.00035,400.752,0.023,0.2744,0.0014,139.998,45.000,31690.46330,1.91436,402.085,33.438,45.059,45.000,0.00,0.11,-272.57,-272.64,-18,572,-2,20.2,8.7,-14.2,20.3,9.0,-13.6,5.73,2.58,-10.8,26.5
2013-11-20 00:12:00,0.0,1.90911,0.00026,400.725,0.026,0.2748,0.0011,140.004,45.000,31694.85016,1.91430,402.062,33.440,45.059,45.000,0.00,0.11,-272.57,-272.63,-18,572,-2,20.2,8.7,-14.1,20.3,9.0,-13.6,5.73,2.58,-10.8,26.5
2013-11-20 00:13:00,0.0,1.90937,0.00031,400.721,0.028,0.2763,0.0011,140.006,45.000,31693.96818,1.91458,402.064,33.463,45.059,45.000,0.00,0.11,-272.57,-272.63,-18,572,-2,20.2,8.7,-14.1,20.3,9.0,-13.6,5.73,2.58,-10.8,26.5
2013-11-20 00:14:00,0.0,1.90943,0.00017,400.724,0.023,0.2764,0.0008,139.998,45.000,31689.14982,1.91470,402.061,33.497,45.059,45.000,0.00,0.11,-272.57,-272.64,-18,572,-2,20.3,8.7,-14.1,20.3,9.0,-13.6,5.73,2.58,-10.8,26.6
2013-11-20 00:15:00,0.0,1.90899,0.00029,400.688,0.072,0.2767,0.0023,140.003,45.000,31694.01209,1.91421,402.041,33.500,45.058,45.000,0.00,0.11,-272.57,-272.63,-18,573,-2,20.3,8.7,-14.1,20.3,9.0,-13.6,5.73,2.58,-10.8,26.6
2013-11-20 00:16:00,0.0,1.90928,0.00034,400.706,0.062,0.2752,0.0025,140.002,45.000,31693.98565,1.91449,402.027,33.500,45.058,45.000,0.00,0.11,-272.57,-272.63,-18,573,-2,20.3,8.7,-14.1,20.3,9.0,-13.6,5.73,2.58,-10.7,26.6
2013-11-20 00:17:00,0.0,1.90936,0.00053,400.715,0.031,0.2784,0.0024,140.000,45.000,31690.75333,1.91459,402.072,33.500,45.059,45.000,0.00,0.11,-272.57,-272.63,-18,573,-2,20.4,8.7,-14.0,20.4,9.0,-13.5,5.73,2.58,-10.7,26.6
2013-11-20 00:18:00,0.0,1.90928,0.00019,400.695,0.007,0.2758,0.0020,140.002,45.000,31692.94346,1.91454,402.034,33.462,45.058,45.000,0.00,0.11,-272.57,-272.63,-18,573,-2,20.4,8.6,-14.1,20.4,9.0,-13.6,5.73,2.57,-10.6,26.5
2013-11-20 00:19:00,0.0,1.90946,0.00024,400.734,0.029,0.2772,0.0013,140.001,45.000,31693.35205,1.91470,402.078,33.438,45.058,44.999,0.00,0.11,-272.57,-272.63,-18,573,-2,20.4,8.7,-14.0,20.4,9.0,-13.5,5.73,2.58,-10.6,26.5
2013-11-20 00:20:00,0.0,1.90884,0.00038,400.656,0.029,0.2770,0.0019,139.999,45.000,31695.00666,1.91414,402.003,33.438,45.058,45.000,0.00,0.11,-272.57,-272.63,-19,573,-2,20.4,8.7,-14.0,20.4,9.0,-13.5,5.73,2.55,-10.5,26.5
2013-11-20 00:21:00,0.0,1.90883,0.00054,400.678,0.030,0.2778,0.0014,140.007,45.000,31696.45812,1.91409,402.024,33.438,45.058,45.000,0.00,0.11,-272.57,-272.63,-19,573,-2,20.4,8.7,-14.0,20.4,9.0,-13.5,5.73,2.54,-10.5,26.5
2013-11-20 00:22:00,0.0,1.90881,0.00028,400.687,0.030,0.2764,0.0016,140.002,45.000,31694.44471,1.91399,402.027,33.439,45.059,45.000,0.00,0.11,-272.57,-272.64,-19,573,-2,20.4,8.6,-14.1,20.4,9.0,-13.5,5.73,2.54,-10.5,26.5
2013-11-20 00:23:00,0.0,1.90923,0.00045,400.707,0.024,0.2746,0.0013,140.000,45.000,31694.25492,1.91438,402.040,33.491,45.059,45.000,0.00,0.11,-272.57,-272.64,-18,573,-2,20.4,8.6,-14.1,20.4,8.9,-13.6,5.73,2.57,-10.4,26.5
2013-11-20 00:24:00,0.0,1.90901,0.00015,400.699,0.039,0.2742,0.0012,140.008,45.000,31697.71222,1.91424,402.030,33.487,45.059,45.000,0.00,0.11,-272.57,-272.63,-18,573,-2,20.4,8.6,-14.1,20.4,8.9,-13.7,5.73,2.59,-10.4,26.5
2013-11-20 00:25:00,0.0,1.90887,0.00016,400.709,0.025,0.2749,0.0020,140.003,45.000,31697.41327,1.91413,402.047,33.495,45.059,45.000,0.00,0.11,-272.57,-272.63,-19,573,-2,20.3,8.6,-14.1,20.4,8.9,-13.6,5.73,2.61,-10.4,26.5
2013-11-20 00:26:00,0.0,1.90880,0.00015,400.695,0.032,0.2762,0.0019,139.996,45.000,31696.18532,1.91399,402.035,33.499,45.059,45.000,0.00,0.11,-272.57,-272.63,-19,573,-2,20.3,8.6,-14.1,20.4,8.9,-13.7,5.73,2.60,-10.4,26.5
2013-11-20 00:27:00,0.0,1.90864,0.00022,400.702,0.013,0.2752,0.0013,140.000,45.000,31695.19386,1.91389,402.038,33.500,45.059,45.000,0.00,0.11,-272.57,-272.63,-19,573,-2,20.3,8.6,-14.2,20.4,8.9,-13.6,5.73,2.58,-10.4,26.5
2013-11-20 00:28:00,0.0,1.90897,0.00048,400.674,0.014,0.2761,0.0010,140.002,45.000,31693.88675,1.91410,402.014,33.500,45.059,45.000,0.00,0.11,-272.56,-272.63,-19,573,-2,20.4,8.6,-14.1,20.4,9.0,-13.6,5.73,2.56,-10.4,26.5
2013-11-20 00:29:00,0.0,1.90896,0.00035,400.679,0.061,0.2764,0.0012,140.001,45.000,31695.92939,1.91423,402.028,33.506,45.059,45.000,0.00,0.11,-272.57,-272.64,-18,573,-2,20.4,8.6,-14.1,20.4,9.0,-13.5,5.73,2.54,-10.3,26.5
2013-11-20 00:30:00,0.0,1.90895,0.00044,400.676,0.023,0.2778,0.0022,140.002,45.000,31694.24627,1.91419,402.016,33.523,45.059,45.000,0.00,0.11,-272.57,-272.63,-19,573,-2,20.4,8.6,-14.1,20.4,9.0,-13.5,5.73,2.55,-10.3,26.5
2013-11-20 00:31:00,0.0,1.90910,0.00035,400.611,0.008,0.2786,0.0021,139.999,45.000,31695.52422,1.91444,401.970,33.547,45.059,45.000,0.00,0.11,-272.57,-272.63,-19,573,-2,20.4,8.6,-14.1,20.4,9.0,-13.5,5.73,2.55,-10.3,26.6
2013-11-20 00:32:00,0.0,1.90898,0.00020,400.631,0.019,0.2795,0.0029,139.998,45.000,31694.05153,1.91426,401.985,33.561,45.058,45.000,0.00,0.11,-272.57,-272.63,-19,573,-2,20.3,8.7,-14.0,20.4,9.1,-13.5,5.73,2.57,-10.3,26.5
2013-11-20 00:33:00,0.0,1.90918,0.00040,400.637,0.022,0.2792,0.0013,140.002,45.000,31692.64878,1.91444,401.990,33.554,45.058,45.000,0.00,0.11,-272.57,-272.64,-19,573,-2,20.4,8.7,-14.0,20.4,9.1,-13.4,5.73,2.59,-10.3,26.6
2013-11-20 00:34:00,0.0,1.90870,0.00022,400.653,0.027,0.2789,0.0023,139.999,45.000,31692.32938,1.91397,402.008,33.563,45.058,45.000,0.00,0.11,-272.57,-272.63,-19,573,-2,20.4,8.7,-14.0,20.4,9.1,-13.4,5.73,2.60,-10.3,26.6
2013-11-20 00:35:00,0.0,1.90854,0.00018,400.612,0.033,0.2772,0.0011,139.999,45.000,31693.48256,1.91383,401.964,33.564,45.058,45.000,0.00,0.11,-272.57,-272.63,-19,573,-2,20.4,8.7,-14.0,20.4,9.0,-13.5,5.73,2.60,-10.3,26.6
2013-11-20 00:36:00,0.0,1.90897,0.00031,400.593,0.052,0.2770,0.0017,140.002,45.000,31694.31542,1.91418,401.939,33.576,45.059,45.000,0.00,0.11,-272.58,-272.63,-19,573,-2,20.4,8.6,-14.0,20.4,9.0,-13.5,5.73,2.58,-10.3,26.7
2013-11-20 00:37:00,0.0,1.90890,0.00036,400.625,0.024,0.2784,0.0013,140.003,45.000,31695.66101,1.91414,401.968,33.598,45.058,45.000,0.00,0.11,-272.57,-272.63,-19,573,-2,20.4,8.6,-14.0,20.4,9.0,-13.5,5.73,2.56,-10.3,26.7
2013-11-20 00:38:00,0.0,1.90895,0.00036,400.625,0.014,0.2800,0.0012,140.003,45.000,31695.12328,1.91421,401.984,33.611,45.058,45.000,0.00,0.11,-272.57,-272.63,-19,573,-2,20.4,8.7,-14.0,20.4,9.0,-13.5,5.73,2.55,-10.3,26.7
2013-11-20 00:39:00,0.0,1.90839,0.00035,400.622,0.043,0.2794,0.0013,140.002,45.000,31695.53988,1.91385,401.982,33.618,45.058,45.000,0.00,0.11,-272.57,-272.64,-19,573,-2,20.4,8.7,-14.0,20.5,9.0,-13.4,5.73,2.54,-10.3,26.7
2013-11-20 00:40:00,0.0,1.90834,0.00043,400.622,0.034,0.2766,0.0007,140.001,45.000,31698.09599,1.91345,401.965,33.625,45.058,45.000,0.00,0.11,-272.57,-272.63,-19,573,-2,20.4,8.7,-14.0,20.5,9.0,-13.4,5.73,2.54,-10.3,26.7
2013-11-20 00:41:00,0.0,1.90843,0.00024,400.622,0.031,0.2788,0.0013,140.003,45.000,31699.55755,1.91374,401.968,33.601,45.058,45.000,0.00,0.11,-272.57,-272.63,-19,573,-2,20.4,8.6,-14.0,20.5,9.0,-13.5,5.73,2.55,-10.3,26.7
2013-11-20 00:42:00,0.0,1.90820,0.00015,400.648,0.006,0.2800,0.0010,140.002,45.000,31700.28063,1.91354,402.006,33.619,45.058,45.000,0.00,0.11,-272.57,-272.64,-19,573,-2,20.4,8.7,-14.0,20.5,9.0,-13.4,5.73,2.57,-10.3,26.8
2013-11-20 00:43:00,0.0,1.90897,0.00026,400.619,0.028,0.2829,0.0011,140.001,45.000,31698.82262,1.91425,401.993,33.625,45.059,45.000,0.00,0.11,-272.57,-272.63,-19,573,-2,20.4,8.7,-13.9,20.5,9.1,-13.4,5.73,2.58,-10.3,26.8
2013-11-20 00:44:00,0.0,1.90837,0.00016,400.636,0.028,0.2829,0.0013,140.007,45.000,31701.86472,1.91381,402.011,33.623,45.059,45.000,0.00,0.11,-272.57,-272.63,-19,573,-2,20.4,8.8,-13.8,20.5,9.1,-13.3,5.73,2.59,-10.3,26.8
2013-11-20 00:45:00,0.0,1.90853,0.00043,400.592,0.037,0.2823,0.0013,140.000,45.000,31699.61121,1.91384,401.968,33.625,45.059,45.000,0.00,0.11,-272.57,-272.63,-19,573,-2,20.4,8.8,-13.8,20.5,9.1,-13.3,5.73,2.59,-10.3,26.8
2013-11-20 00:46:00,0.0,1.90818,0.00010,400.557,0.032,0.2833,0.0014,140.000,45.000,31700.97541,1.91356,401.932,33.624,45.059,45.000,0.00,0.11,-272.57,-272.64,-19,573,-2,20.5,8.8,-13.8,20.5,9.1,-13.3,5.73,2.59,-10.3,26.8
2013-11-20 00:47:00,0.0,1.90861,0.00039,400.541,0.008,0.2832,0.0014,140.005,45.000,31701.20775,1.91386,401.916,33.624,45.059,45.000,0.00,0.11,-272.57,-272.63,-19,573,-2,20.5,8.8,-13.8,20.6,9.1,-13.3,5.73,2.58,-10.3,26.8
2013-11-20 00:48:00,0.0,1.90884,0.00024,400.538,0.032,0.2857,0.0018,140.005,45.000,31700.54054,1.91429,401.926,33.625,45.059,45.000,0.00,0.11,-272.57,-272.63,-19,573,-2,20.5,8.8,-13.7,20.6,9.2,-13.2,5.73,2.56,-10.3,26.8
2013-11-20 00:49:00,0.0,1.90843,0.00009,400.536,0.033,0.2845,0.0019,140.002,45.000,31701.88075,1.91382,401.916,33.627,45.059,45.000,0.00,0.11,-272.57,-272.64,-19,573,-2,20.5,8.8,-13.7,20.6,9.2,-13.2,5.73,2.55,-10.3,26.8
2013-11-20 00:50:00,0.0,1.90805,0.00043,400.542,0.025,0.2856,0.0012,140.007,45.000,31704.02813,1.91347,401.926,33.625,45.059,45.000,0.00,0.11,-272.57,-272.63,-19,573,-2,20.5,8.8,-13.8,20.6,9.2,-13.2,5.73,2.54,-10.3,26.8
2013-11-20 00:51:00,0.0,1.90819,0.00021,400.525,0.017,0.2835,0.0024,140.001,45.000,31703.01598,1.91357,401.904,33.625,45.059,45.000,0.00,0.12,-272.56,-272.63,-19,573,-2,20.4,8.8,-13.8,20.6,9.2,-13.2,5.73,2.54,-10.3,26.8
2013-11-20 00:52:00,0.0,1.90765,0.00029,400.520,0.018,0.2876,0.0022,139.999,45.000,31702.46526,1.91314,401.914,33.640,45.059,45.000,0.00,0.11,-272.57,-272.63,-19,573,-2,20.4,8.9,-13.7,20.6,9.2,-13.2,5.73,2.55,-10.3,26.8
2013-11-20 00:53:00,0.0,1.90787,0.00035,400.513,0.046,0.2863,0.0010,140.003,45.000,31703.25468,1.91333,401.899,33.626,45.059,45.000,0.00,0.11,-272.57,-272.63,-19,573,-2,20.4,8.9,-13.7,20.5,9.2,-13.2,5.73,2.57,-10.3,26.8
2013-11-20 00:54:00,0.0,1.90771,0.00015,400.514,0.005,0.2867,0.0018,140.002,45.000,31703.85498,1.91313,401.910,33.625,45.059,45.000,0.00,0.11,-272.57,-272.63,-19,573,-2,20.4,8.9,-13.7,20.5,9.2,-13.2,5.73,2.58,-10.3,26.8
2013-11-20 00:55:00,0.0,1.90808,0.00051,400.534,0.025,0.2842,0.0017,139.998,45.000,31699.20804,1.91327,401.915,33.625,45.059,45.000,0.00,0.11,-272.57,-272.63,-19,573,-2,20.4,8.8,-13.7,20.6,9.2,-13.2,5.73,2.59,-10.3,26.8
2013-11-20 00:56:00,0.0,1.90809,0.00038,400.535,0.027,0.2852,0.0009,140.006,45.000,31702.43079,1.91363,401.914,33.625,45.059,45.000,0.00,0.11,-272.57,-272.63,-19,573,-2,20.5,8.8,-13.7,20.6,9.2,-13.2,5.73,2.59,-10.3,26.8
2013-11-20 00:57:00,0.0,1.90786,0.00030,400.537,0.036,0.2856,0.0018,140.003,45.000,31702.26839,1.91322,401.926,33.625,45.059,45.000,0.00,0.12,-272.57,-272.63,-19,573,-2,20.5,8.8,-13.7,20.6,9.2,-13.2,5.73,2.59,-10.3,26.9
2013-11-20 00:58:00,0.0,1.90810,0.00044,400.513,0.054,0.2842,0.0020,140.005,45.000,31702.22098,1.91349,401.895,33.625,45.059,45.000,0.00,0.11,-272.57,-272.63,-19,573,-2,20.5,8.8,-13.7,20.6,9.2,-13.2,5.73,2.58,-10.3,26.9
2013-11-20 00:59:00,0.0,1.90816,0.00030,400.491,0.036,0.2852,0.0008,140.002,45.000,31700.95506,1.91355,401.879,33.625,45.059,45.000,0.00,0.11,-272.57,-272.63,-19,573,-2,20.5,8.8,-13.7,20.6,9.1,-13.2,5.73,2.56,-10.3,26.9
2013-11-20 01:00:00,3.0,1.87647,0.00944,399.206,1.264,0.0357,0.0342,139.995,45.000,30997.58341,1.88266,399.752,33.625,45.058,45.000,0.00,0.12,-272.56,-272.63,-19,467,-2,20.5,8.8,-13.8,20.6,9.1,-13.3,5.73,2.55,-10.3,26.8
2013-11-20 01:01:00,3.0,1.87731,0.00048,397.197,0.067,0.0133,0.0011,140.001,45.000,30976.50762,1.87734,397.292,33.625,45.059,45.000,0.00,0.12,-272.57,-272.63,-19,467,-2,20.5,8.8,-13.8,20.6,9.1,-13.3,5.73,2.53,-10.3,26.8
2013-11-20 01:02:00,3.0,1.87774,0.00040,397.101,0.029,0.0133,0.0011,140.007,45.000,30965.22022,1.87788,397.163,33.622,45.058,45.000,0.00,0.11,-272.57,-272.63,-19,467,-2,20.5,8.7,-13.8,20.6,9.1,-13.3,5.73,2.54,-10.3,26.9
2013-11-20 01:03:00,3.0,1.87716,0.00012,397.263,0.081,0.0117,0.0011,139.999,45.000,30952.83140,1.87757,397.300,33.625,45.059,45.000,0.00,0.12,-272.57,-272.64,-19,467,-2,20.5,8.8,-13.8,20.6,9.1,-13.3,5.73,2.54,-10.3,26.9
2013-11-20 01:04:00,3.0,1.87723,0.00031,397.419,0.048,0.0102,0.0025,140.000,45.000,30949.26707,1.87740,397.458,33.623,45.058,45.000,0.00,0.12,-272.57,-272.63,-19,467,-2,20.5,8.8,-13.8,20.6,9.1,-13.2,5.73,2.56,-10.3,26.9
2013-11-20 01:05:00,3.0,1.87769,0.00025,397.579,0.058,0.0079,0.0011,140.003,45.000,30942.72518,1.87779,397.607,33.617,45.058,45.000,0.00,0.11,-272.57,-272.63,-19,467,-2,20.6,8.7,-13.8,20.6,9.1,-13.3,5.73,2.57,-10.3,26.9
2013-11-20 01:06:00,3.0,1.87736,0.00019,397.549,0.037,0.0057,0.0016,140.001,45.000,30937.70062,1.87751,397.582,33.583,45.058,45.000,0.00,0.11,-272.57,-272.63,-19,468,-2,20.6,8.7,-13.8,20.6,9.0,-13.3,5.73,2.58,-10.3,26.9
2013-11-20 01:07:00,3.0,1.87785,0.00035,397.574,0.036,0.0047,0.0015,140.005,45.000,30934.24924,1.87787,397.601,33.564,45.059,45.000,0.00,0.12,-272.57,-272.63,-19,468,-2,20.6,8.6,-13.9,20.7,9.0,-13.4,5.73,2.58,-10.3,27.0
2013-11-20 01:08:00,3.0,1.87754,0.00022,397.584,0.030,0.0033,0.0012,140.004,45.000,30931.79656,1.87764,397.595,33.563,45.059,45.000,0.00,0.11,-272.56,-272.63,-19,468,-2,20.6,8.6,-13.9,20.7,8.9,-13.4,5.73,2.59,-10.3,27.0
2013-11-20 01:09:00,3.0,1.87778,0.00021,397.610,0.030,0.0032,0.0015,139.998,45.000,30927.87135,1.87779,397.622,33.563,45.059,45.000,0.00,0.12,-272.57,-272.63,-19,468,-2,20.7,8.6,-13.8,20.7,9.0,-13.4,5.73,2.58,-10.3,27.1
2013-11-20 01:10:00,2.0,1.86038,0.01744,393.687,3.564,0.0080,0.0033,140.121,45.000,31723.56532,1.86487,394.294,33.557,45.059,45.000,0.00,0.11,-272.57,-272.63,-19,608,-2,20.7,8.6,-13.9,20.7,8.9,-13.4,5.73,2.60,-10.3,27.1
2013-11-20 01:11:00,2.0,1.84741,0.00023,389.679,0.042,0.0101,0.0041,140.000,45.000,31899.44156,1.84758,389.717,33.563,45.058,45.000,0.00,0.12,-272.56,-272.63,-19,610,-2,20.7,8.6,-13.8,20.8,8.9,-13.4,5.73,2.54,-10.3,27.1
2013-11-20 01:12:00,2.0,1.84763,0.00021,389.682,0.011,0.0079,0.0008,140.000,45.000,31916.71618,1.84782,389.723,33.557,45.058,45.000,0.00,0.11,-272.57,-272.63,-19,611,-2,20.8,8.6,-13.8,20.8,8.9,-13.4,5.73,2.54,-10.3,27.1
2013-11-20 01:13:00,2.0,1.84734,0.00023,389.691,0.026,0.0080,0.0021,140.005,45.000,31933.19196,1.84749,389.726,33.520,45.058,45.000,0.00,0.12,-272.57,-272.64,-19,611,-2,20.8,8.6,-13.8,20.8,8.9,-13.4,5.73,2.54,-10.3,27.2
2013-11-20 01:14:00,2.0,1.84763,0.00032,389.630,0.027,0.0056,0.0018,140.006,45.000,31947.12255,1.84775,389.665,33.531,45.058,45.000,0.00,0.12,-272.56,-272.63,-19,611,-3,20.9,8.5,-13.8,20.9,8.9,-13.4,5.73,2.54,-10.3,27.2
2013-11-20 01:15:00,2.0,1.84738,0.00027,389.671,0.016,0.0063,0.0022,139.997,45.000,31953.54696,1.84749,389.696,33.535,45.059,45.000,0.00,0.12,-272.57,-272.63,-19,609,-4,20.9,8.5,-13.8,20.9,8.9,-13.3,5.73,2.54,-10.3,27.2
2013-11-20 01:16:00,2.0,1.84736,0.00041,389.689,0.017,0.0035,0.0020,139.998,45.000,31959.31071,1.84732,389.702,33.511,45.058,45.000,0.00,0.12,-272.57,-272.63,-19,612,-2,20.9,8.5,-13.8,20.9,8.8,-13.4,5.73,2.56,-10.3,27.3
2013-11-20 01:17:00,2.0,1.84746,0.00037,389.658,0.019,0.0017,0.0020,140.005,45.000,31969.40517,1.84758,389.671,33.537,45.059,45.000,0.00,0.12,-272.57,-272.63,-19,611,-2,21.0,8.5,-13.8,21.0,8.8,-13.3,5.73,2.57,-10.3,27.3
2013-11-20 01:18:00,2.0,1.84763,0.00026,389.655,0.052,0.0014,0.0017,139.996,45.000,31970.11096,1.84757,389.657,33.525,45.059,45.000,0.00,0.12,-272.57,-272.63,-19,611,-2,21.0,8.5,-13.8,21.0,8.8,-13.3,5.73,2.58,-10.3,27.3
2013-11-20 01:19:00,2.0,1.84781,0.00040,389.692,0.038,0.0020,0.0011,140.003,45.000,31976.84282,1.84780,389.705,33.507,45.059,45.000,0.00,0.12,-272.57,-272.63,-20,611,-3,21.1,8.4,-13.8,21.1,8.8,-13.4,5.73,2.59,-10.3,27.4
2013-11-20 01:20:00,4.0,1.78029,0.03160,373.975,9.614,0.0069,0.0051,140.008,45.000,31686.12505,1.79549,375.994,33.531,45.059,45.000,0.00,0.11,-272.57,-272.63,-20,561,-3,21.1,8.4,-13.8,21.1,8.7,-13.4,5.73,2.62,-10.3,27.4
2013-11-20 01:21:00,4.0,1.76499,0.00027,367.754,0.037,0.0018,0.0021,140.000,45.000,31639.73200,1.76497,367.759,33.502,45.058,45.000,0.00,0.12,-272.56,-272.63,-19,560,-2,21.2,8.3,-13.9,21.2,8.7,-13.4,5.73,2.57,-10.3,27.4
2013-11-20 01:22:00,4.0,1.76511,0.00012,367.850,0.021,0.0029,0.0015,140.000,45.000,31626.57605,1.76524,367.864,33.504,45.058,45.000,0.00,0.12,-272.57,-272.62,-19,558,-3,21.2,8.3,-13.9,21.2,8.6,-13.5,5.73,2.56,-10.3,27.5
2013-11-20 01:23:00,4.0,1.76507,0.00020,367.808,0.025,0.0035,0.0017,140.001,45.000,31617.28707,1.76512,367.828,33.500,45.059,45.000,0.00,0.12,-272.57,-272.63,-23,556,-3,21.3,8.2,-14.0,21.2,8.6,-13.5,5.73,2.55,-10.3,27.5
2013-11-20 01:24:00,4.0,1.76496,0.00015,367.787,0.034,0.0024,0.0009,139.998,45.000,31607.65231,1.76506,367.794,33.506,45.058,45.000,0.00,0.12,-272.56,-272.62,-19,556,-3,21.3,8.2,-14.0,21.2,8.6,-13.5,5.73,2.54,-10.3,27.5
2013-11-20 01:25:00,4.0,1.76464,0.00029,367.774,0.026,0.0027,0.0020,139.998,45.000,31603.67686,1.76468,367.789,33.500,45.058,45.000,0.00,0.12,-272.56,-272.63,-20,555,-3,21.3,8.2,-14.0,21.3,8.6,-13.5,5.73,2.54,-10.3,27.5
2013-11-20 01:26:00,4.0,1.76465,0.00021,367.782,0.036,0.0029,0.0021,139.998,45.000,31595.99437,1.76472,367.800,33.509,45.059,45.000,0.00,0.12,-272.56,-272.64,-20,555,-3,21.3,8.2,-14.0,21.3,8.5,-13.5,5.73,2.54,-10.3,27.5
2013-11-20 01:27:00,4.0,1.76490,0.00023,367.764,0.032,0.0019,0.0016,140.003,45.000,31592.53631,1.76491,367.772,33.508,45.059,45.000,0.00,0.12,-272.56,-272.63,-20,554,-3,21.4,8.2,-14.0,21.3,8.5,-13.5,5.73,2.54,-10.3,27.6
2013-11-20 01:28:00,4.0,1.76510,0.00029,367.777,0.027,0.0003,0.0009,139.997,45.000,31584.03727,1.76501,367.774,33.502,45.059,45.000,0.00,0.12,-272.56,-272.63,-20,554,-3,21.4,8.2,-14.0,21.3,8.5,-13.5,5.73,2.55,-10.3,27.6
2013-11-20 01:29:00,4.0,1.76498,0.00039,367.794,0.018,0.0004,0.0011,139.994,45.000,31580.17099,1.76513,367.799,33.502,45.059,45.000,0.00,0.12,-272.56,-272.63,-19,554,-3,21.4,8.1,-14.0,21.4,8.4,-13.6,5.73,2.56,-10.3,27.6
2013-11-20 01:30:00,1.0,1.81267,0.02042,382.491,3.725,0.0222,0.0223,140.007,45.000,32524.42134,1.80437,381.334,33.514,45.059,45.000,0.00,0.12,-272.56,-272.63,-20,705,-3,21.4,8.1,-14.1,21.4,8.4,-13.6,5.73,2.57,-10.3,27.6
2013-11-20 01:31:00,1.0,1.82125,0.00018,384.081,0.034,0.0060,0.0017,140.004,45.000,32581.50415,1.82134,384.110,33.502,45.059,45.000,0.00,0.12,-272.56,-272.63,-19,705,-3,21.5,8.1,-14.0,21.4,8.4,-13.6,5.73,2.59,-10.3,27.7
2013-11-20 01:32:00,1.0,1.82101,0.00027,384.101,0.013,0.0064,0.0018,140.001,45.000,32597.83872,1.82111,384.126,33.501,45.059,45.000,0.00,0.12,-272.57,-272.63,-20,705,-3,21.5,8.1,-14.0,21.4,8.4,-13.6,5.73,2.59,-10.3,27.7
2013-11-20 01:33:00,1.0,1.82096,0.00027,384.126,0.002,0.0047,0.0014,140.011,45.000,32612.24497,1.82111,384.150,33.506,45.059,45.000,0.00,0.12,-272.57,-272.63,-20,705,-3,21.5,8.1,-13.9,21.5,8.5,-13.5,5.73,2.58,-10.2,27.7
2013-11-20 01:34:00,1.0,1.82143,0.00029,384.132,0.013,0.0047,0.0020,140.007,45.000,32621.25827,1.82151,384.154,33.517,45.059,45.000,0.00,0.12,-272.56,-272.63,-20,705,-3,21.6,8.1,-13.9,21.5,8.4,-13.5,5.73,2.56,-10.3,27.7
2013-11-20 01:35:00,1.0,1.82167,0.00023,384.067,0.029,0.0037,0.0025,139.997,45.000,32627.01733,1.82166,384.088,33.512,45.059,45.000,0.00,0.12,-272.56,-272.63,-20,705,-3,21.6,8.1,-14.0,21.5,8.4,-13.6,5.73,2.54,-10.2,27.8
2013-11-20 01:36:00,1.0,1.82155,0.00031,384.090,0.008,0.0012,0.0015,140.000,45.000,32633.71779,1.82154,384.094,33.532,45.059,45.000,0.00,0.12,-272.56,-272.63,-20,704,-3,21.6,8.1,-14.0,21.5,8.4,-13.5,5.73,2.53,-10.2,27.8
2013-11-20 01:37:00,1.0,1.82161,0.00028,384.119,0.013,0.0019,0.0016,140.001,45.000,32641.47830,1.82173,384.126,33.558,45.059,45.000,0.00,0.12,-272.56,-272.63,-20,704,-3,21.6,8.1,-13.9,21.6,8.4,-13.5,5.73,2.54,-10.2,27.8
2013-11-20 01:38:00,1.0,1.82112,0.00033,384.110,0.040,-0.0016,0.0031,140.000,45.000,32646.09617,1.82106,384.103,33.563,45.058,45.000,0.00,0.12,-272.56,-272.63,-20,704,-3,21.6,8.1,-13.9,21.6,8.4,-13.5,5.73,2.55,-10.2,27.8
2013-11-20 01:39:00,1.0,1.82132,0.00048,384.101,0.013,0.0011,0.0015,139.997,45.000,32657.75414,1.82141,384.107,33.563,45.058,45.000,0.00,0.12,-272.57,-272.63,-20,705,-3,21.7,8.1,-13.9,21.6,8.4,-13.4,5.73,2.57,-10.2,27.8
2013-11-20 01:40:00,0.0,1.88361,0.03474,395.206,6.777,0.1807,0.1129,139.994,45.000,31827.18516,1.87405,394.762,33.563,45.058,45.000,0.00,0.12,-272.56,-272.63,-20,574,-3,21.7,8.1,-13.9,21.6,8.4,-13.5,5.73,2.60,-10.2,27.9
2013-11-20 01:41:00,0.0,1.90845,0.00037,400.527,0.033,0.2657,0.0020,139.994,45.000,31787.59005,1.91342,401.822,33.568,45.058,45.000,0.00,0.12,-272.56,-272.63,-20,574,-3,21.7,8.1,-13.9,21.7,8.4,-13.5,5.73,2.58,-10.2,27.9
2013-11-20 01:42:00,0.0,1.90812,0.00024,400.491,0.016,0.2701,0.0017,140.001,45.000,31780.03072,1.91330,401.801,33.571,45.058,45.000,0.00,0.12,-272.56,-272.63,-20,575,-3,21.7,8.1,-13.9,21.7,8.4,-13.4,5.73,2.59,-10.2,27.9
2013-11-20 01:43:00,0.0,1.90791,0.00011,400.432,0.014,0.2749,0.0017,140.002,45.000,31772.54431,1.91312,401.767,33.581,45.058,45.000,0.00,0.12,-272.57,-272.63,-20,575,-3,21.7,8.1,-13.9,21.7,8.4,-13.4,5.73,2.57,-10.2,27.8
2013-11-20 01:44:00,0.0,1.90784,0.00029,400.407,0.025,0.2727,0.0013,140.006,45.000,31764.88245,1.91298,401.735,33.563,45.058,45.000,0.00,0.12,-272.56,-272.63,-20,575,-3,21.7,8.1,-13.8,21.7,8.4,-13.4,5.73,2.55,-10.2,27.8
2013-11-20 01:45:00,0.0,1.90771,0.00032,400.406,0.012,0.2747,0.0022,140.003,45.000,31759.46764,1.91298,401.735,33.563,45.058,45.000,0.00,0.12,-272.56,-272.63,-20,575,-3,21.7,8.1,-13.9,21.7,8.4,-13.4,5.73,2.54,-10.2,27.8
2013-11-20 01:46:00,0.0,1.90752,0.00015,400.385,0.020,0.2748,0.0023,140.005,45.000,31753.78154,1.91269,401.721,33.564,45.059,45.000,0.00,0.12,-272.57,-272.63,-20,575,-3,21.7,8.1,-13.9,21.7,8.4,-13.4,5.73,2.54,-10.2,27.8
2013-11-20 01:47:00,0.0,1.90748,0.00033,400.391,0.031,0.2744,0.0018,140.006,45.000,31750.07316,1.91266,401.717,33.574,45.059,45.000,0.00,0.12,-272.56,-272.63,-20,575,-3,21.6,8.1,-13.9,21.7,8.4,-13.5,5.73,2.55,-10.2,27.7
2013-11-20 01:48:00,0.0,1.90728,0.00055,400.405,0.026,0.2762,0.0013,139.999,45.000,31745.82058,1.91240,401.752,33.598,45.059,45.000,0.00,0.12,-272.56,-272.62,-20,575,-3,21.6,8.1,-13.9,21.7,8.4,-13.4,5.73,2.56,-10.2,27.7
2013-11-20 01:49:00,0.0,1.90741,0.00028,400.337,0.017,0.2775,0.0010,139.998,45.000,31742.39724,1.91278,401.685,33.609,45.058,45.000,0.00,0.12,-272.56,-272.63,-20,575,-3,21.6,8.2,-13.8,21.7,8.5,-13.3,5.73,2.58,-10.2,27.7
2013-11-20 01:50:00,0.0,1.90731,0.00022,400.342,0.026,0.2772,0.0020,139.998,45.000,31739.01876,1.91254,401.687,33.607,45.058,45.000,0.00,0.12,-272.56,-272.63,-20,576,-3,21.6,8.2,-13.8,21.7,8.5,-13.3,5.73,2.59,-10.2,27.7
2013-11-20 01:51:00,0.0,1.90687,0.00024,400.334,0.029,0.2801,0.0012,140.002,45.000,31738.86175,1.91222,401.693,33.599,45.058,45.000,0.00,0.12,-272.56,-272.62,-20,576,-3,21.6,8.2,-13.8,21.6,8.5,-13.3,5.73,2.59,-10.2,27.7
2013-11-20 01:52:00,0.0,1.90711,0.00026,400.317,0.020,0.2814,0.0010,139.999,45.000,31734.75328,1.91242,401.678,33.594,45.058,45.000,0.00,0.12,-272.56,-272.63,-20,576,-3,21.6,8.3,-13.7,21.6,8.5,-13.3,5.73,2.58,-10.2,27.7